< < Back
Terminal Aerodrome Forecast


Current Version              Previous Versions:   1  2  3  4  5  6  7  8  9  

Terminal Aerodrome Forecast

303
FTUS42 KCAE 242300
TAFAGS
TAF
KAGS 242328Z 2500/2524 VRB05KT P6SM FEW080
     FM250600 13004KT P6SM FEW015 BKN100
     FM250800 VRB03KT 6SM BR SCT008 BKN015
     FM251400 22012G20KT P6SM SCT015 BKN045
     FM251800 26017G24KT P6SM SCT050 SCT100=



Latest METAR

899
SAUS70 KWBC 250600 RRE
MTRAGS
METAR KAGS 250553Z AUTO 00000KT 10SM FEW013 17/14 A2994 RMK AO2 SLP136
60000 T01670144 10222 20161 56009


USA.gov is the U.S. government's official web portal to all federal, state and local government web resources and services.